sat.trackr.live / text

‹ back to catalog

JILIN-1 GAOFEN 3G

NORAD 46459 · 2020-065F

PAYLOAD ACTIVE UNKNOWN

§ Identity

Operator
Country
PRC
Launch date
2020-09-15
Launch site
SEAL
Launch vehicle
Mass (kg)
RCS (m²)

External: N2YO · Heavens-Above · Gunter

§ Orbital elements

Epoch: 2026-05-25T04:33:03.485088Z

Period
91.90 min
Inclination
97.2307°
Eccentricity
0.0012519
Mean motion
15.66947011 rev/d
Perigee alt
359.2 km
Apogee alt
376.1 km
Semi-major
6,745.8 km
B*
7.4922e-4
RAAN
201.2018°
Arg perigee
134.5463°
Mean anomaly
225.6822°
Rev number
31,633

§ Raw data

JILIN-1 GAOFEN 3G1 46459U 20065F   26145.18962367  .00080213  00000+0  74922-3 0  99912 46459  97.2307 201.2018 0012519 134.5463 225.6822 15.66947011316339

JSON: /api/v1/satellites/46459 · /tle

For live sub-satellite position, see the globe view (requires WebGL).

§ Visibility from observer

Set your observer location to see the next 7 days of passes ≥ 10°. The values pass through the URL so the page stays shareable.

No JS? Fill the form by hand. The geolocation button needs JavaScript.

§ Radio — SatNOGS DB

ModeDescriptionDownlinkUplink
BPSK Jillin Mysterious Pip 1.616 GHz

1 transmitter · refreshed weekly from db.satnogs.org